Location: Most
(50.5133°N, 13.6207°E)
Time: 14:25:30
(UTC+02:00)

ISS - Pass Details

Date: 16 September 2017
Orbit: 402 x 407 km, 51.6° (Epoch: 21 September)

Event Time Altitude Azimuth Distance (km) Brightness Sun altitude
Exits shadow 06:02:10 - 281° (W) 1,631 -1.3 -7.2°
Reaches altitude 10° 06:02:35 10° 279° (W) 1,472 -1.6 -7.1°
Maximum altitude 06:05:41 39° 209° (SSW) 623 -3.2 -6.6°
Drops below altitude 10° 06:08:48 10° 138° (SE) 1,465 -0.6 -6.2°
Sets 06:10:56 0° 131° (SE) 2,322 0.6 -5.8°
